TimeMST,TemperatureF,Dew PointF,Humidity,Sea Level PressureIn,VisibilityMPH,Wind Direction,Wind SpeedMPH,Gust SpeedMPH,PrecipitationIn,Events,Conditions,WindDirDegrees,DateUTC
12:53 AM,15.1,10.9,84,29.99,10.0,ESE,5.8,-,N/A,,Overcast,120,2013-01-15 07:53:00
1:53 AM,17.1,12.9,84,30.00,6.0,Calm,Calm,-,N/A,,Overcast,0,2013-01-15 08:53:00
2:53 AM,19.0,16.0,88,29.99,7.0,WSW,4.6,-,0.00,,Overcast,240,2013-01-15 09:53:00
3:37 AM,19.4,15.8,86,29.84,2.5,Calm,Calm,-,N/A,,Overcast,0,2013-01-15 10:37:00
3:46 AM,19.4,17.6,93,29.84,2.5,Calm,Calm,-,N/A,,Overcast,0,2013-01-15 10:46:00
3:53 AM,19.9,17.1,89,29.97,3.0,SW,3.5,-,N/A,,Overcast,230,2013-01-15 10:53:00
4:02 AM,19.4,17.6,93,29.85,4.0,WSW,3.5,-,N/A,,Overcast,250,2013-01-15 11:02:00
4:36 AM,19.4,17.6,93,29.84,10.0,West,3.5,-,N/A,,Overcast,280,2013-01-15 11:36:00
4:53 AM,19.9,18.0,92,29.98,10.0,WNW,5.8,-,N/A,,Overcast,290,2013-01-15 11:53:00
5:53 AM,23.0,21.0,92,29.95,7.0,West,5.8,-,N/A,,Overcast,260,2013-01-15 12:53:00
6:00 AM,24.8,21.2,86,29.81,3.0,West,4.6,-,0.00,Snow,Light Snow,260,2013-01-15 13:00:00
6:08 AM,24.8,23.0,93,29.81,2.0,WSW,5.8,-,0.00,Snow,Light Snow,250,2013-01-15 13:08:00
6:12 AM,24.8,23.0,93,29.81,3.0,WSW,5.8,-,0.00,Snow,Light Snow,250,2013-01-15 13:12:00
6:24 AM,26.6,24.8,93,29.81,8.0,West,4.6,-,0.01,,Overcast,260,2013-01-15 13:24:00
6:53 AM,26.1,25.0,96,29.93,4.0,WSW,5.8,-,0.01,,Overcast,250,2013-01-15 13:53:00
7:24 AM,28.4,26.6,93,29.80,10.0,West,8.1,-,N/A,,Overcast,270,2013-01-15 14:24:00
7:45 AM,28.4,26.6,93,29.80,2.5,West,9.2,-,0.00,Snow,Light Snow,280,2013-01-15 14:45:00
7:53 AM,28.0,26.1,92,29.92,2.0,WNW,8.1,-,0.00,Snow,Light Snow,290,2013-01-15 14:53:00
8:08 AM,28.4,26.6,93,29.80,5.0,WNW,11.5,-,0.00,Snow,Light Snow,290,2013-01-15 15:08:00
8:36 AM,32.0,28.4,87,29.81,6.0,West,15.0,-,0.00,,Overcast,280,2013-01-15 15:36:00
8:43 AM,32.0,28.4,87,29.81,1.8,West,16.1,23.0,0.00,Snow,Light Snow,280,2013-01-15 15:43:00
8:53 AM,32.0,28.9,88,29.93,1.0,West,15.0,-,0.00,Snow,Light Snow,280,2013-01-15 15:53:00
9:00 AM,32.0,28.4,87,29.82,1.8,West,15.0,-,0.00,Snow,Light Snow,280,2013-01-15 16:00:00
9:04 AM,32.0,28.4,87,29.81,3.0,West,15.0,-,0.00,Snow,Light Snow,280,2013-01-15 16:04:00
9:53 AM,33.1,28.9,85,29.92,10.0,West,18.4,-,0.01,,Overcast,280,2013-01-15 16:53:00
10:14 AM,33.8,30.2,87,29.81,2.0,West,17.3,-,0.00,Snow,Light Snow,280,2013-01-15 17:14:00
10:18 AM,33.8,30.2,87,29.81,1.2,WNW,21.9,26.5,0.00,Snow,Light Snow,290,2013-01-15 17:18:00
10:28 AM,33.8,28.4,81,29.81,2.0,WNW,21.9,27.6,0.00,Snow,Light Snow,290,2013-01-15 17:28:00
10:36 AM,35.6,28.4,75,29.81,6.0,WNW,21.9,32.2,0.00,,Haze,290,2013-01-15 17:36:00
10:53 AM,35.1,28.0,76,29.91,10.0,WNW,21.9,28.8,0.00,,Overcast,290,2013-01-15 17:53:00
11:53 AM,36.0,28.0,73,29.90,10.0,West,18.4,27.6,N/A,,Overcast,280,2013-01-15 18:53:00
12:53 PM,37.0,27.0,67,29.87,10.0,West,21.9,32.2,N/A,,Overcast,280,2013-01-15 19:53:00
1:53 PM,36.0,28.0,73,29.87,10.0,WNW,31.1,38.0,0.00,,Overcast,290,2013-01-15 20:53:00
2:53 PM,37.0,28.0,70,29.85,10.0,WNW,27.6,38.0,N/A,,Overcast,290,2013-01-15 21:53:00
3:53 PM,37.0,28.9,73,29.87,10.0,WNW,26.5,38.0,N/A,,Overcast,290,2013-01-15 22:53:00
4:53 PM,37.0,28.9,73,29.87,10.0,WNW,29.9,38.0,N/A,,Mostly Cloudy,290,2013-01-15 23:53:00
5:53 PM,37.0,30.0,76,29.89,10.0,WNW,25.3,34.5,N/A,,Overcast,290,2013-01-16 00:53:00
6:53 PM,37.0,28.9,73,29.89,10.0,WNW,25.3,34.5,N/A,,Overcast,290,2013-01-16 01:53:00
7:53 PM,37.0,28.9,73,29.90,10.0,WNW,26.5,34.5,N/A,,Overcast,290,2013-01-16 02:53:00
8:53 PM,37.0,28.9,73,29.91,10.0,WNW,19.6,28.8,N/A,,Overcast,290,2013-01-16 03:53:00
9:53 PM,36.0,28.9,76,29.91,10.0,WNW,19.6,-,N/A,,Overcast,290,2013-01-16 04:53:00
10:53 PM,36.0,28.9,76,29.90,10.0,West,19.6,-,N/A,,Overcast,280,2013-01-16 05:53:00
11:53 PM,37.0,28.0,70,29.87,10.0,West,20.7,29.9,N/A,,Overcast,280,2013-01-16 06:53:00